Preview of NWS' New Version of Forecast
This preview is not operational and should not be used for support decisions.

Regional Weather Roundup (RWR)

Issued by National Weather Service (NWS)

                            
000
ASUS43 KTOP 251308
RWRKS 

WEATHER ROUNDUP FOR KANSAS
NATIONAL WEATHER SERVICE GOODLAND KS
800 AM CDT TUE JUN 25 2019

NOTE:  "FAIR" INDICATES FEW OR NO CLOUDS BELOW 12,000 FEET WITH NO
SIGNIFICANT WEATHER AND/OR OBSTRUCTIONS TO VISIBILITY.

KSZ001>006-013>018-027>032-041>047-251400-
NORTHWEST KANSAS
  
CITY           SKY/WX    TMP DP  RH WIND       PRES   REMARKS
GOODLAND       MOSUNNY   65  54  67 SW8       29.95R                  
HAYS           SUNNY     71  61  70 SW16      29.92S                  
HILL CITY      SUNNY     71  58  63 W3        29.93R                  
RUSSELL        SUNNY     67  58  72 SW9       29.92R                  
$$

KSZ061>065-074>080-084>089-251400-
SOUTHWEST KANSAS
  
CITY           SKY/WX    TMP DP  RH WIND       PRES   REMARKS
DODGE CITY     LGT RAIN  68  63  84 S13       29.95F                  
ELKHART        SUNNY     69  66  92 S14       29.98S                  
GARDEN CITY    SUNNY     64  59  83 SE8       29.95F                  
GREAT BEND     SUNNY     68  61  78 SW10      29.95R                  
LIBERAL        MOSUNNY   69  66  90 S10       29.98F                  
PRATT          SUNNY     70  64  81 SW9       29.97R                  
$$

KSZ066>073-081>083-090>101-251400-
SOUTHEAST KANSAS
  
CITY           SKY/WX    TMP DP  RH WIND       PRES   REMARKS
CHANUTE        SUNNY     72  65  78 S12       29.97R                  
COFFEYVILLE    SUNNY     70  67  90 S6        29.96R                  
HUTCHINSON     SUNNY     70  61  73 S6        29.94R                  
MEDICINE LODGE   N/A     69  63  81 CALM      29.96R                  
NEWTON         SUNNY     69  63  81 SW8       29.96R                  
PARSONS        SUNNY     70  68  93 SW5       29.98R                  
WICHITA INTL   MOSUNNY   69  63  81 SW8       29.94R                  
WICHITA JABRA  SUNNY     71  65  81 SW15G22   29.94R                  
WICHITA MCCONL SUNNY     70  64  81 S12       29.95R                  
WINFIELD       SUNNY     71  67  87 SW5       29.97R                  
$$

KSZ007>012-019>026-033>040-048>060-102>105-251400-
NORTHEAST KANSAS
  
CITY           SKY/WX    TMP DP  RH WIND       PRES   REMARKS
CONCORDIA      SUNNY     73  59  61 MISG      29.92R                  
EMPORIA        SUNNY     68  64  87 S5        29.95R                  
LAWRENCE       SUNNY     71  62  73 W3        29.95R                  
MANHATTAN      SUNNY     70  62  76 S8        29.93S                  
MARYSVILLE     SUNNY     68  61  77 SW5       29.92R                  
OLATHE IND     SUNNY     69  61  75 S9        29.96R                  
OLATHE EXE     SUNNY     70  62  76 SW8       29.96R                  
SALINA         SUNNY     71  60  68 VRB3      29.95R                  
TOPEKA BILLARD SUNNY     71  62  73 SW6       29.94R                  
TOPEKA FORBES  SUNNY     71  62  73 NW10      29.96R                  
$$